Time,TemperatureF,DewpointF,PressureIn,WindDirection,WindDirectionDegrees,WindSpeedMPH,WindSpeedGustMPH,Humidity,HourlyPrecipIn,Conditions,Clouds,dailyrainin,SolarRadiationWatts/m^2,SoftwareType,DateUTC
2013-01-20 00:00:00,29.0,19.8,30.45,NNW,336,0.0,0.0,68,0.00,,,0.00,0,WeatherHawk,2013-01-20 08:00:00,
2013-01-20 00:05:00,29.7,21.5,30.45,NNW,336,0.0,0.0,71,0.00,,,0.00,0,WeatherHawk,2013-01-20 08:05:00,
2013-01-20 00:10:00,27.9,19.1,30.46,NNW,336,0.0,-999.0,69,0.00,,,0.00,0,WeatherHawk,2013-01-20 08:10:00,
2013-01-20 00:15:00,28.6,21.0,30.46,NNW,336,0.0,0.0,73,0.00,,,0.00,0,WeatherHawk,2013-01-20 08:15:00,
2013-01-20 00:20:00,28.7,20.8,30.46,SE,126,0.0,-999.0,72,0.00,,,0.00,0,WeatherHawk,2013-01-20 08:20:00,
2013-01-20 00:25:00,28.0,19.1,30.46,SE,126,0.0,0.0,69,0.00,,,0.00,0,WeatherHawk,2013-01-20 08:25:00,
2013-01-20 00:30:00,28.5,20.7,30.46,SE,126,0.0,0.0,72,0.00,,,0.00,0,WeatherHawk,2013-01-20 08:30:00,
2013-01-20 00:35:00,29.7,20.5,30.46,SE,126,0.0,0.0,68,0.00,,,0.00,0,WeatherHawk,2013-01-20 08:35:00,
2013-01-20 00:40:00,28.4,19.9,30.46,SE,126,0.0,-999.0,70,0.00,,,0.00,0,WeatherHawk,2013-01-20 08:40:00,
2013-01-20 00:45:00,28.8,22.3,30.46,SE,126,0.0,0.0,76,0.00,,,0.00,0,WeatherHawk,2013-01-20 08:45:00,
2013-01-20 00:50:00,28.7,22.4,30.46,SE,126,0.0,-999.0,77,0.00,,,0.00,1,WeatherHawk,2013-01-20 08:50:00,
2013-01-20 00:55:00,29.2,21.9,30.46,SE,126,0.0,0.0,74,0.00,,,0.00,0,WeatherHawk,2013-01-20 08:55:00,
2013-01-20 01:00:00,27.4,20.5,30.46,SE,126,0.0,-999.0,75,0.00,,,0.00,0,WeatherHawk,2013-01-20 09:00:00,
2013-01-20 01:05:00,28.0,20.5,30.46,SE,126,0.0,0.0,73,0.00,,,0.00,0,WeatherHawk,2013-01-20 09:05:00,
2013-01-20 01:10:00,27.5,19.0,30.46,SE,126,0.0,0.0,70,0.00,,,0.00,0,WeatherHawk,2013-01-20 09:10:00,
2013-01-20 01:15:00,28.2,21.7,30.47,SE,126,0.0,-999.0,76,0.00,,,0.00,0,WeatherHawk,2013-01-20 09:15:00,
2013-01-20 01:20:00,28.8,22.2,30.46,North,350,0.0,0.0,76,0.00,,,0.00,0,WeatherHawk,2013-01-20 09:20:00,
2013-01-20 01:25:00,27.6,20.1,30.46,North,350,0.0,0.0,73,0.00,,,0.00,1,WeatherHawk,2013-01-20 09:25:00,
2013-01-20 01:30:00,27.1,20.5,30.46,North,350,0.0,0.0,76,0.00,,,0.00,0,WeatherHawk,2013-01-20 09:30:00,
2013-01-20 01:35:00,28.3,22.0,30.46,North,350,0.0,0.0,77,0.00,,,0.00,1,WeatherHawk,2013-01-20 09:35:00,
2013-01-20 01:40:00,26.2,20.3,30.46,NNW,344,0.0,0.0,78,0.00,,,0.00,0,WeatherHawk,2013-01-20 09:40:00,
2013-01-20 01:45:00,26.8,20.6,30.46,SSE,157,0.0,0.0,77,0.00,,,0.00,1,WeatherHawk,2013-01-20 09:45:00,
2013-01-20 01:50:00,28.4,20.9,30.46,West,274,0.0,0.0,73,0.00,,,0.00,0,WeatherHawk,2013-01-20 09:50:00,
2013-01-20 01:55:00,27.5,18.4,30.46,SSW,203,0.0,0.0,68,0.00,,,0.00,1,WeatherHawk,2013-01-20 09:55:00,
2013-01-20 02:00:00,28.1,19.9,30.46,SSW,203,0.0,0.0,71,0.00,,,0.00,0,WeatherHawk,2013-01-20 10:00:00,
2013-01-20 02:05:00,27.9,18.7,30.46,SSW,205,2.0,0.0,68,0.00,,,0.00,0,WeatherHawk,2013-01-20 10:05:00,
2013-01-20 02:10:00,27.7,17.8,30.46,SSW,205,2.0,0.0,66,0.00,,,0.00,0,WeatherHawk,2013-01-20 10:10:00,
2013-01-20 02:15:00,28.0,17.8,30.46,SW,226,1.0,-999.0,65,0.00,,,0.00,0,WeatherHawk,2013-01-20 10:15:00,
2013-01-20 02:20:00,28.6,18.3,30.46,SW,223,1.0,0.0,65,0.00,,,0.00,0,WeatherHawk,2013-01-20 10:20:00,
2013-01-20 02:25:00,27.8,17.2,30.46,WSW,255,0.0,-999.0,64,0.00,,,0.00,0,WeatherHawk,2013-01-20 10:25:00,
2013-01-20 02:30:00,27.6,18.1,30.46,WSW,255,0.0,0.0,67,0.00,,,0.00,0,WeatherHawk,2013-01-20 10:30:00,
2013-01-20 02:35:00,27.1,18.7,30.46,WSW,255,0.0,0.0,70,0.00,,,0.00,0,WeatherHawk,2013-01-20 10:35:00,
2013-01-20 02:40:00,27.3,17.8,30.47,WSW,255,0.0,0.0,67,0.00,,,0.00,0,WeatherHawk,2013-01-20 10:40:00,
2013-01-20 02:45:00,29.3,19.1,30.47,SE,124,0.0,0.0,65,0.00,,,0.00,1,WeatherHawk,2013-01-20 10:45:00,
2013-01-20 02:50:00,28.8,18.2,30.47,NNW,342,0.0,0.0,64,0.00,,,0.00,0,WeatherHawk,2013-01-20 10:50:00,
2013-01-20 02:55:00,29.7,18.3,30.47,SSW,207,2.0,-999.0,62,0.00,,,0.00,0,WeatherHawk,2013-01-20 10:55:00,
2013-01-20 03:00:00,32.1,13.7,30.47,South,181,3.0,0.0,46,0.00,,,0.00,0,WeatherHawk,2013-01-20 11:00:00,
2013-01-20 03:05:00,31.7,10.7,30.47,SSE,161,5.0,0.0,41,0.00,,,0.00,1,WeatherHawk,2013-01-20 11:05:00,
2013-01-20 03:10:00,31.8,10.3,30.46,SSW,194,3.0,0.0,40,0.00,,,0.00,0,WeatherHawk,2013-01-20 11:10:00,
2013-01-20 03:15:00,32.2,9.5,30.46,South,188,6.0,-999.0,38,0.00,,,0.00,1,WeatherHawk,2013-01-20 11:15:00,
2013-01-20 03:20:00,32.3,9.0,30.45,SSW,196,7.0,0.0,37,0.00,,,0.00,0,WeatherHawk,2013-01-20 11:20:00,
2013-01-20 03:25:00,32.3,9.0,30.45,SSW,209,7.0,0.0,37,0.00,,,0.00,0,WeatherHawk,2013-01-20 11:25:00,
2013-01-20 03:30:00,32.6,8.0,30.46,SW,216,4.0,0.0,35,0.00,,,0.00,0,WeatherHawk,2013-01-20 11:30:00,
2013-01-20 03:35:00,32.5,7.3,30.45,SSW,213,6.0,0.0,34,0.00,,,0.00,0,WeatherHawk,2013-01-20 11:35:00,
2013-01-20 03:40:00,32.5,6.7,30.45,South,183,6.0,-999.0,33,0.00,,,0.00,0,WeatherHawk,2013-01-20 11:40:00,
2013-01-20 03:45:00,32.2,6.4,30.45,SW,214,7.0,0.0,33,0.00,,,0.00,0,WeatherHawk,2013-01-20 11:45:00,
2013-01-20 03:50:00,31.8,6.0,30.45,SSW,201,5.0,0.0,33,0.00,,,0.00,0,WeatherHawk,2013-01-20 11:50:00,
2013-01-20 03:55:00,31.3,6.9,30.45,SSW,208,6.0,0.0,35,0.00,,,0.00,0,WeatherHawk,2013-01-20 11:55:00,
2013-01-20 04:00:00,30.2,8.2,30.44,SSW,205,6.0,0.0,39,0.00,,,0.00,1,WeatherHawk,2013-01-20 12:00:00,
2013-01-20 04:06:00,31.1,9.6,30.44,SSE,164,6.0,0.0,40,0.00,,,0.00,0,WeatherHawk,2013-01-20 12:06:00,
2013-01-20 04:11:00,31.0,9.6,30.44,SSW,196,6.0,0.0,40,0.00,,,0.00,1,WeatherHawk,2013-01-20 12:11:00,
2013-01-20 04:16:00,30.6,9.2,30.44,SSW,192,5.0,0.0,40,0.00,,,0.00,0,WeatherHawk,2013-01-20 12:16:00,
2013-01-20 04:21:00,30.7,10.4,30.45,South,169,6.0,0.0,42,0.00,,,0.00,0,WeatherHawk,2013-01-20 12:21:00,
2013-01-20 04:26:00,30.9,10.5,30.45,WSW,248,4.0,0.0,42,0.00,,,0.00,0,WeatherHawk,2013-01-20 12:26:00,
2013-01-20 04:31:00,30.6,10.3,30.45,SW,215,5.0,0.0,42,0.00,,,0.00,0,WeatherHawk,2013-01-20 12:31:00,
2013-01-20 04:36:00,28.3,8.7,30.44,SSW,200,0.0,0.0,43,0.00,,,0.00,0,WeatherHawk,2013-01-20 12:36:00,
2013-01-20 04:42:00,29.4,12.2,30.45,SSW,201,0.0,0.0,48,0.00,,,0.00,0,WeatherHawk,2013-01-20 12:42:00,
2013-01-20 04:48:00,28.2,14.2,30.45,SSW,212,3.0,0.0,55,0.00,,,0.00,0,WeatherHawk,2013-01-20 12:48:00,
2013-01-20 04:53:00,30.3,11.5,30.45,WSW,257,1.0,0.0,45,0.00,,,0.00,0,WeatherHawk,2013-01-20 12:53:00,
2013-01-20 04:58:00,29.2,12.0,30.45,NNW,335,0.0,0.0,48,0.00,,,0.00,0,WeatherHawk,2013-01-20 12:58:00,
2013-01-20 05:04:00,30.7,12.9,30.45,South,181,1.0,0.0,47,0.00,,,0.00,0,WeatherHawk,2013-01-20 13:04:00,
2013-01-20 05:09:00,29.8,10.1,30.45,South,170,7.0,0.0,43,0.00,,,0.00,0,WeatherHawk,2013-01-20 13:09:00,
2013-01-20 05:14:00,30.4,10.6,30.45,SSE,162,8.0,0.0,43,0.00,,,0.00,0,WeatherHawk,2013-01-20 13:14:00,
2013-01-20 05:19:00,30.1,9.3,30.45,SSE,154,6.0,0.0,41,0.00,,,0.00,0,WeatherHawk,2013-01-20 13:19:00,
2013-01-20 05:24:00,29.0,8.8,30.45,SW,225,3.0,0.0,42,0.00,,,0.00,0,WeatherHawk,2013-01-20 13:24:00,
2013-01-20 05:29:00,24.4,13.7,30.45,WSW,244,0.0,0.0,63,0.00,,,0.00,1,WeatherHawk,2013-01-20 13:29:00,
2013-01-20 05:34:00,29.6,12.3,30.45,SSW,194,3.0,0.0,48,0.00,,,0.00,0,WeatherHawk,2013-01-20 13:34:00,
2013-01-20 05:39:00,29.5,11.7,30.45,South,173,6.0,0.0,47,0.00,,,0.00,0,WeatherHawk,2013-01-20 13:39:00,
2013-01-20 05:44:00,28.4,10.8,30.45,South,179,4.0,0.0,47,0.00,,,0.00,0,WeatherHawk,2013-01-20 13:44:00,
2013-01-20 05:49:00,28.3,10.2,30.45,South,171,4.0,0.0,46,0.00,,,0.00,0,WeatherHawk,2013-01-20 13:49:00,
2013-01-20 05:54:00,27.7,10.2,30.45,SW,228,4.0,0.0,47,0.00,,,0.00,0,WeatherHawk,2013-01-20 13:54:00,
2013-01-20 05:59:00,27.8,11.2,30.45,SW,217,3.0,0.0,49,0.00,,,0.00,0,WeatherHawk,2013-01-20 13:59:00,
2013-01-20 06:05:00,27.0,12.6,30.45,NW,326,3.0,0.0,54,0.00,,,0.00,0,WeatherHawk,2013-01-20 14:05:00,
2013-01-20 06:10:00,27.0,15.4,30.45,WSW,240,0.0,-999.0,61,0.00,,,0.00,0,WeatherHawk,2013-01-20 14:10:00,
2013-01-20 06:15:00,24.8,15.4,30.45,SW,216,0.0,0.0,67,0.00,,,0.00,0,WeatherHawk,2013-01-20 14:15:00,
2013-01-20 06:20:00,25.0,17.6,30.45,WNW,282,0.0,0.0,73,0.00,,,0.00,0,WeatherHawk,2013-01-20 14:20:00,
2013-01-20 06:25:00,25.0,17.9,30.45,NNW,334,0.0,0.0,74,0.00,,,0.00,0,WeatherHawk,2013-01-20 14:25:00,
2013-01-20 06:30:00,24.3,18.7,30.46,NNW,334,0.0,0.0,79,0.00,,,0.00,0,WeatherHawk,2013-01-20 14:30:00,
2013-01-20 06:36:00,24.2,18.3,30.46,SW,224,0.0,0.0,78,0.00,,,0.00,0,WeatherHawk,2013-01-20 14:36:00,
2013-01-20 06:41:00,25.3,17.9,30.46,SW,227,0.0,0.0,73,0.00,,,0.00,0,WeatherHawk,2013-01-20 14:41:00,
2013-01-20 06:46:00,27.5,15.1,30.46,SSW,194,0.0,0.0,59,0.00,,,0.00,0,WeatherHawk,2013-01-20 14:46:00,
2013-01-20 06:52:00,24.1,15.1,30.47,SSW,197,0.0,0.0,68,0.00,,,0.00,0,WeatherHawk,2013-01-20 14:52:00,
2013-01-20 06:57:00,22.8,16.7,30.46,NNW,338,0.0,0.0,77,0.00,,,0.00,1,WeatherHawk,2013-01-20 14:57:00,
2013-01-20 07:02:00,23.9,17.8,30.47,North,0,0.0,0.0,77,0.00,,,0.00,0,WeatherHawk,2013-01-20 15:02:00,
2013-01-20 07:07:00,25.3,15.2,30.46,SE,135,0.0,0.0,65,0.00,,,0.00,0,WeatherHawk,2013-01-20 15:07:00,
2013-01-20 07:12:00,28.4,12.6,30.46,SSW,209,5.0,0.0,51,0.00,,,0.00,0,WeatherHawk,2013-01-20 15:12:00,
2013-01-20 07:17:00,26.3,9.3,30.46,WSW,247,0.0,0.0,48,0.00,,,0.00,0,WeatherHawk,2013-01-20 15:17:00,
2013-01-20 07:22:00,25.1,16.7,30.46,WSW,238,0.0,0.0,70,0.00,,,0.00,1,WeatherHawk,2013-01-20 15:22:00,
2013-01-20 07:27:00,26.2,15.3,30.46,SSW,199,0.0,0.0,63,0.00,,,0.00,2,WeatherHawk,2013-01-20 15:27:00,
2013-01-20 07:32:00,23.5,18.0,30.47,SSW,208,0.0,0.0,79,0.00,,,0.00,1,WeatherHawk,2013-01-20 15:32:00,
2013-01-20 07:37:00,23.3,19.5,30.47,NW,307,0.0,0.0,85,0.00,,,0.00,5,WeatherHawk,2013-01-20 15:37:00,
2013-01-20 07:42:00,22.8,19.5,30.47,SSW,202,0.0,0.0,87,0.00,,,0.00,6,WeatherHawk,2013-01-20 15:42:00,
2013-01-20 07:47:00,23.5,20.7,30.48,SSE,154,0.0,0.0,89,0.00,,,0.00,8,WeatherHawk,2013-01-20 15:47:00,
2013-01-20 07:52:00,23.2,19.9,30.47,SSE,154,0.0,0.0,87,0.00,,,0.00,10,WeatherHawk,2013-01-20 15:52:00,
2013-01-20 07:57:00,23.5,20.2,30.48,SE,137,0.0,0.0,87,0.00,,,0.00,10,WeatherHawk,2013-01-20 15:57:00,
2013-01-20 08:02:00,23.6,20.1,30.48,SSE,148,0.0,0.0,86,0.00,,,0.00,12,WeatherHawk,2013-01-20 16:02:00,
2013-01-20 08:07:00,23.1,19.9,30.48,South,188,0.0,0.0,87,0.00,,,0.00,14,WeatherHawk,2013-01-20 16:07:00,
2013-01-20 08:12:00,23.2,19.9,30.48,South,188,0.0,0.0,87,0.00,,,0.00,15,WeatherHawk,2013-01-20 16:12:00,
2013-01-20 08:17:00,24.4,21.6,30.48,ESE,103,0.0,0.0,89,0.00,,,0.00,15,WeatherHawk,2013-01-20 16:17:00,
2013-01-20 08:22:00,22.5,18.4,30.49,NNW,342,0.0,0.0,84,0.00,,,0.00,15,WeatherHawk,2013-01-20 16:22:00,
2013-01-20 08:27:00,24.3,20.5,30.49,NNW,342,0.0,0.0,85,0.00,,,0.00,18,WeatherHawk,2013-01-20 16:27:00,
2013-01-20 08:32:00,23.7,19.6,30.49,South,181,0.0,0.0,84,0.00,,,0.00,17,WeatherHawk,2013-01-20 16:32:00,
2013-01-20 08:37:00,23.2,18.8,30.49,South,181,0.0,0.0,83,0.00,,,0.00,18,WeatherHawk,2013-01-20 16:37:00,
2013-01-20 08:42:00,23.8,20.0,30.49,NNE,30,0.0,0.0,85,0.00,,,0.00,19,WeatherHawk,2013-01-20 16:42:00,
2013-01-20 08:47:00,24.3,21.2,30.49,NNE,30,0.0,0.0,88,0.00,,,0.00,19,WeatherHawk,2013-01-20 16:47:00,
2013-01-20 08:53:00,24.0,19.6,30.50,SSW,193,0.0,0.0,83,0.00,,,0.00,20,WeatherHawk,2013-01-20 16:53:00,
2013-01-20 08:58:00,23.8,19.2,30.49,SSW,193,0.0,0.0,82,0.00,,,0.00,20,WeatherHawk,2013-01-20 16:58:00,
2013-01-20 09:03:00,22.9,19.4,30.49,SSW,193,0.0,0.0,86,0.00,,,0.00,20,WeatherHawk,2013-01-20 17:03:00,
2013-01-20 09:08:00,23.1,20.1,30.49,SSW,193,0.0,0.0,88,0.00,,,0.00,22,WeatherHawk,2013-01-20 17:08:00,
2013-01-20 09:13:00,23.1,21.2,30.50,SSW,193,0.0,0.0,92,0.00,,,0.00,24,WeatherHawk,2013-01-20 17:13:00,
2013-01-20 09:18:00,24.5,23.1,30.50,North,9,0.0,0.0,94,0.00,,,0.00,72,WeatherHawk,2013-01-20 17:18:00,
2013-01-20 09:23:00,25.1,21.8,30.50,North,9,0.0,0.0,87,0.00,,,0.00,124,WeatherHawk,2013-01-20 17:23:00,
2013-01-20 09:28:00,37.5,32.6,30.50,North,9,0.0,0.0,82,0.00,,,0.00,197,WeatherHawk,2013-01-20 17:28:00,
2013-01-20 09:33:00,33.4,25.1,30.50,North,9,0.0,0.0,71,0.00,,,0.00,207,WeatherHawk,2013-01-20 17:33:00,
2013-01-20 09:38:00,27.5,16.9,30.50,SSE,166,2.0,0.0,64,0.00,,,0.00,215,WeatherHawk,2013-01-20 17:38:00,
2013-01-20 09:43:00,27.7,17.9,30.50,West,276,0.0,0.0,66,0.00,,,0.00,222,WeatherHawk,2013-01-20 17:43:00,
2013-01-20 09:48:00,29.7,17.9,30.49,ESE,104,0.0,0.0,61,0.00,,,0.00,230,WeatherHawk,2013-01-20 17:48:00,
2013-01-20 09:53:00,31.6,18.9,30.49,ESE,104,0.0,0.0,59,0.00,,,0.00,239,WeatherHawk,2013-01-20 17:53:00,
2013-01-20 09:58:00,32.2,19.2,30.49,ESE,104,0.0,0.0,58,0.00,,,0.00,246,WeatherHawk,2013-01-20 17:58:00,
2013-01-20 10:03:00,35.0,20.0,30.49,ESE,104,0.0,0.0,54,0.00,,,0.00,252,WeatherHawk,2013-01-20 18:03:00,
2013-01-20 10:08:00,31.7,14.8,30.49,SSW,209,0.0,0.0,49,0.00,,,0.00,261,WeatherHawk,2013-01-20 18:08:00,
2013-01-20 10:13:00,34.2,17.6,30.49,SSW,209,0.0,0.0,50,0.00,,,0.00,266,WeatherHawk,2013-01-20 18:13:00,
2013-01-20 10:18:00,28.4,8.8,30.49,SSW,209,0.0,0.0,43,0.00,,,0.00,274,WeatherHawk,2013-01-20 18:18:00,
2013-01-20 10:23:00,28.1,9.5,30.48,West,269,0.0,0.0,45,0.00,,,0.00,281,WeatherHawk,2013-01-20 18:23:00,
2013-01-20 10:28:00,29.2,8.5,30.47,West,267,0.0,0.0,41,0.00,,,0.00,286,WeatherHawk,2013-01-20 18:28:00,
2013-01-20 10:33:00,28.8,5.2,30.48,West,267,0.0,0.0,36,0.00,,,0.00,293,WeatherHawk,2013-01-20 18:33:00,
2013-01-20 10:38:00,28.4,11.7,30.48,WNW,287,0.0,0.0,49,0.00,,,0.00,298,WeatherHawk,2013-01-20 18:38:00,
2013-01-20 10:43:00,30.2,12.4,30.48,WSW,258,0.0,0.0,47,0.00,,,0.00,304,WeatherHawk,2013-01-20 18:43:00,
2013-01-20 10:48:00,31.3,11.9,30.48,WSW,258,0.0,0.0,44,0.00,,,0.00,308,WeatherHawk,2013-01-20 18:48:00,
2013-01-20 10:53:00,30.2,12.4,30.47,WNW,299,4.0,0.0,47,0.00,,,0.00,314,WeatherHawk,2013-01-20 18:53:00,
2013-01-20 10:58:00,36.9,20.9,30.47,NNW,335,0.0,0.0,52,0.00,,,0.00,317,WeatherHawk,2013-01-20 18:58:00,
2013-01-20 11:03:00,37.3,16.4,30.47,NNW,335,0.0,0.0,42,0.00,,,0.00,322,WeatherHawk,2013-01-20 19:03:00,
2013-01-20 11:08:00,32.8,12.8,30.46,WNW,300,0.0,0.0,43,0.00,,,0.00,325,WeatherHawk,2013-01-20 19:08:00,
2013-01-20 11:13:00,33.3,12.7,30.46,WSW,258,0.0,0.0,42,0.00,,,0.00,331,WeatherHawk,2013-01-20 19:13:00,
2013-01-20 11:18:00,33.7,13.0,30.46,NNE,20,0.0,0.0,42,0.00,,,0.00,334,WeatherHawk,2013-01-20 19:18:00,
2013-01-20 11:23:00,35.4,9.2,30.45,NE,37,4.0,0.0,33,0.00,,,0.00,338,WeatherHawk,2013-01-20 19:23:00,
2013-01-20 11:28:00,35.1,10.8,30.45,ESE,107,0.0,0.0,36,0.00,,,0.00,340,WeatherHawk,2013-01-20 19:28:00,
2013-01-20 11:33:00,35.3,6.3,30.44,ENE,70,6.0,0.0,29,0.00,,,0.00,342,WeatherHawk,2013-01-20 19:33:00,
2013-01-20 11:38:00,35.1,6.1,30.44,ENE,72,6.0,0.0,29,0.00,,,0.00,344,WeatherHawk,2013-01-20 19:38:00,
2013-01-20 11:43:00,36.4,6.4,30.43,ENE,74,6.0,0.0,28,0.00,,,0.00,347,WeatherHawk,2013-01-20 19:43:00,
2013-01-20 11:48:00,36.9,2.6,30.43,ENE,63,4.0,0.0,23,0.00,,,0.00,350,WeatherHawk,2013-01-20 19:48:00,
2013-01-20 11:53:00,36.6,2.4,30.43,ENE,57,6.0,0.0,23,0.00,,,0.00,351,WeatherHawk,2013-01-20 19:53:00,
2013-01-20 11:58:00,38.4,4.8,30.43,NE,47,5.0,0.0,24,0.00,,,0.00,352,WeatherHawk,2013-01-20 19:58:00,
2013-01-20 12:03:00,36.7,4.3,30.43,ENE,65,6.0,0.0,25,0.00,,,0.00,353,WeatherHawk,2013-01-20 20:03:00,
2013-01-20 12:08:00,38.0,7.0,30.42,NNE,31,5.0,0.0,27,0.00,,,0.00,353,WeatherHawk,2013-01-20 20:08:00,
2013-01-20 12:13:00,37.0,7.8,30.42,NE,47,5.0,0.0,29,0.00,,,0.00,354,WeatherHawk,2013-01-20 20:13:00,
2013-01-20 12:18:00,35.6,8.0,30.42,NE,49,6.0,0.0,31,0.00,,,0.00,354,WeatherHawk,2013-01-20 20:18:00,
2013-01-20 12:23:00,35.8,8.9,30.42,NE,55,5.0,0.0,32,0.00,,,0.00,353,WeatherHawk,2013-01-20 20:23:00,
2013-01-20 12:29:00,36.0,6.1,30.42,ENE,61,6.0,0.0,28,0.00,,,0.00,352,WeatherHawk,2013-01-20 20:29:00,
2013-01-20 12:34:00,36.8,6.8,30.41,ENE,73,6.0,0.0,28,0.00,,,0.00,352,WeatherHawk,2013-01-20 20:34:00,
2013-01-20 12:39:00,36.3,3.9,30.41,ENE,68,5.0,0.0,25,0.00,,,0.00,350,WeatherHawk,2013-01-20 20:39:00,
2013-01-20 12:44:00,37.7,7.6,30.41,NE,56,5.0,0.0,28,0.00,,,0.00,349,WeatherHawk,2013-01-20 20:44:00,
2013-01-20 12:49:00,38.7,8.5,30.40,NE,38,4.0,0.0,28,0.00,,,0.00,348,WeatherHawk,2013-01-20 20:49:00,
2013-01-20 12:54:00,38.1,9.4,30.40,NNE,27,5.0,0.0,30,0.00,,,0.00,344,WeatherHawk,2013-01-20 20:54:00,
2013-01-20 12:59:00,39.8,11.6,30.40,ENE,69,6.0,0.0,31,0.00,,,0.00,342,WeatherHawk,2013-01-20 20:59:00,
2013-01-20 13:04:00,37.1,10.0,30.39,ENE,58,7.0,0.0,32,0.00,,,0.00,339,WeatherHawk,2013-01-20 21:04:00,
2013-01-20 13:10:00,37.4,8.0,30.40,NE,43,6.0,0.0,29,0.00,,,0.00,335,WeatherHawk,2013-01-20 21:10:00,
2013-01-20 13:15:00,36.9,10.5,30.39,NE,42,7.0,0.0,33,0.00,,,0.00,332,WeatherHawk,2013-01-20 21:15:00,
2013-01-20 13:20:00,37.3,10.9,30.39,NE,52,6.0,0.0,33,0.00,,,0.00,328,WeatherHawk,2013-01-20 21:20:00,
2013-01-20 13:25:00,36.6,10.9,30.39,NE,54,6.0,-999.0,34,0.00,,,0.00,325,WeatherHawk,2013-01-20 21:25:00,
2013-01-20 13:30:00,36.6,10.9,30.39,NE,56,6.0,0.0,34,0.00,,,0.00,320,WeatherHawk,2013-01-20 21:30:00,
2013-01-20 13:35:00,37.2,11.5,30.39,NE,45,6.0,0.0,34,0.00,,,0.00,313,WeatherHawk,2013-01-20 21:35:00,
2013-01-20 13:40:00,36.9,12.4,30.38,ENE,60,7.0,-999.0,36,0.00,,,0.00,310,WeatherHawk,2013-01-20 21:40:00,
2013-01-20 13:45:00,36.0,11.7,30.38,NE,51,6.0,-999.0,36,0.00,,,0.00,305,WeatherHawk,2013-01-20 21:45:00,
2013-01-20 13:50:00,36.4,12.6,30.38,NE,53,7.0,0.0,37,0.00,,,0.00,300,WeatherHawk,2013-01-20 21:50:00,
2013-01-20 13:55:00,36.4,12.0,30.38,NE,51,3.0,0.0,36,0.00,,,0.00,295,WeatherHawk,2013-01-20 21:55:00,
2013-01-20 14:00:00,36.9,12.5,30.38,ENE,58,5.0,0.0,36,0.00,,,0.00,290,WeatherHawk,2013-01-20 22:00:00,
2013-01-20 14:05:00,37.3,13.5,30.38,NE,46,5.0,0.0,37,0.00,,,0.00,283,WeatherHawk,2013-01-20 22:05:00,
2013-01-20 14:10:00,37.5,12.4,30.38,ENE,66,5.0,0.0,35,0.00,,,0.00,278,WeatherHawk,2013-01-20 22:10:00,
2013-01-20 14:15:00,37.4,12.3,30.38,NE,42,4.0,-999.0,35,0.00,,,0.00,265,WeatherHawk,2013-01-20 22:15:00,
2013-01-20 14:20:00,37.5,11.7,30.38,ENE,69,5.0,-999.0,34,0.00,,,0.00,265,WeatherHawk,2013-01-20 22:20:00,
2013-01-20 14:25:00,38.4,12.5,30.37,ENE,67,4.0,-999.0,34,0.00,,,0.00,256,WeatherHawk,2013-01-20 22:25:00,
2013-01-20 14:30:00,38.6,12.7,30.38,ENE,66,6.0,0.0,34,0.00,,,0.00,250,WeatherHawk,2013-01-20 22:30:00,
2013-01-20 14:35:00,39.2,13.2,30.37,NNE,27,4.0,0.0,34,0.00,,,0.00,242,WeatherHawk,2013-01-20 22:35:00,
2013-01-20 14:40:00,39.4,14.1,30.37,NE,50,2.0,0.0,35,0.00,,,0.00,234,WeatherHawk,2013-01-20 22:40:00,
2013-01-20 14:45:00,39.4,13.4,30.37,NE,50,3.0,0.0,34,0.00,,,0.00,226,WeatherHawk,2013-01-20 22:45:00,
2013-01-20 14:50:00,39.0,14.4,30.37,East,81,3.0,-999.0,36,0.00,,,0.00,218,WeatherHawk,2013-01-20 22:50:00,
2013-01-20 14:55:00,38.2,13.0,30.37,ENE,60,4.0,0.0,35,0.00,,,0.00,210,WeatherHawk,2013-01-20 22:55:00,
2013-01-20 15:00:00,38.9,14.3,30.37,NE,42,3.0,0.0,36,0.00,,,0.00,201,WeatherHawk,2013-01-20 23:00:00,
2013-01-20 15:05:00,39.1,14.4,30.37,East,80,4.0,0.0,36,0.00,,,0.00,194,WeatherHawk,2013-01-20 23:05:00,
2013-01-20 15:10:00,38.9,14.3,30.36,ENE,65,3.0,-999.0,36,0.00,,,0.00,185,WeatherHawk,2013-01-20 23:10:00,
2013-01-20 15:15:00,38.3,13.1,30.36,NE,44,2.0,-999.0,35,0.00,,,0.00,176,WeatherHawk,2013-01-20 23:15:00,
2013-01-20 15:20:00,39.0,13.0,30.36,NE,52,1.0,-999.0,34,0.00,,,0.00,167,WeatherHawk,2013-01-20 23:20:00,
2013-01-20 15:25:00,38.5,13.2,30.36,ESE,114,2.0,0.0,35,0.00,,,0.00,159,WeatherHawk,2013-01-20 23:25:00,
2013-01-20 15:30:00,39.3,13.3,30.36,ENE,60,4.0,0.0,34,0.00,,,0.00,150,WeatherHawk,2013-01-20 23:30:00,
2013-01-20 15:35:00,38.8,13.5,30.36,NE,54,3.0,-999.0,35,0.00,,,0.00,141,WeatherHawk,2013-01-20 23:35:00,
2013-01-20 15:40:00,38.1,12.9,30.36,ENE,57,5.0,-999.0,35,0.00,,,0.00,132,WeatherHawk,2013-01-20 23:40:00,
2013-01-20 15:45:00,39.0,15.0,30.36,North,6,2.0,-999.0,37,0.00,,,0.00,125,WeatherHawk,2013-01-20 23:45:00,
2013-01-20 15:50:00,38.8,14.8,30.36,ENE,68,3.0,0.0,37,0.00,,,0.00,115,WeatherHawk,2013-01-20 23:50:00,
2013-01-20 15:55:00,38.6,14.0,30.36,NE,52,3.0,0.0,36,0.00,,,0.00,106,WeatherHawk,2013-01-20 23:55:00,
2013-01-20 16:00:00,38.4,13.8,30.36,East,85,2.0,-999.0,36,0.00,,,0.00,99,WeatherHawk,2013-01-21 00:00:00,
2013-01-20 16:05:00,38.4,13.1,30.36,ENE,57,4.0,0.0,35,0.00,,,0.00,89,WeatherHawk,2013-01-21 00:05:00,
2013-01-20 16:10:00,38.2,14.2,30.36,ENE,60,2.0,0.0,37,0.00,,,0.00,81,WeatherHawk,2013-01-21 00:10:00,
2013-01-20 16:15:00,37.5,14.3,30.36,ENE,61,2.0,0.0,38,0.00,,,0.00,74,WeatherHawk,2013-01-21 00:15:00,
2013-01-20 16:20:00,37.4,14.7,30.36,NNE,28,3.0,-999.0,39,0.00,,,0.00,65,WeatherHawk,2013-01-21 00:20:00,
2013-01-20 16:25:00,37.2,14.6,30.36,NNE,28,3.0,-999.0,39,0.00,,,0.00,56,WeatherHawk,2013-01-21 00:25:00,
2013-01-20 16:30:00,37.0,15.0,30.36,ENE,69,3.0,-999.0,40,0.00,,,0.00,49,WeatherHawk,2013-01-21 00:30:00,
2013-01-20 16:35:00,37.2,15.1,30.36,ENE,65,4.0,-999.0,40,0.00,,,0.00,38,WeatherHawk,2013-01-21 00:35:00,
2013-01-20 16:40:00,36.4,14.9,30.36,NE,48,5.0,0.0,41,0.00,,,0.00,10,WeatherHawk,2013-01-21 00:40:00,
2013-01-20 16:45:00,36.4,15.5,30.36,NE,56,4.0,0.0,42,0.00,,,0.00,8,WeatherHawk,2013-01-21 00:45:00,
2013-01-20 16:50:00,35.6,15.8,30.37,ENE,74,4.0,-999.0,44,0.00,,,0.00,8,WeatherHawk,2013-01-21 00:50:00,
2013-01-20 16:55:00,35.4,15.2,30.37,East,94,3.0,-999.0,43,0.00,,,0.00,5,WeatherHawk,2013-01-21 00:55:00,
2013-01-20 17:00:00,35.2,16.6,30.37,ENE,73,2.0,0.0,46,0.00,,,0.00,4,WeatherHawk,2013-01-21 01:00:00,
2013-01-20 17:05:00,34.8,16.2,30.37,East,97,3.0,0.0,46,0.00,,,0.00,0,WeatherHawk,2013-01-21 01:05:00,
2013-01-20 17:10:00,35.0,16.8,30.37,East,101,3.0,0.0,47,0.00,,,0.00,2,WeatherHawk,2013-01-21 01:10:00,
2013-01-20 17:15:00,34.8,17.1,30.37,East,86,3.0,0.0,48,0.00,,,0.00,0,WeatherHawk,2013-01-21 01:15:00,
2013-01-20 17:20:00,35.3,17.6,30.38,East,87,3.0,-999.0,48,0.00,,,0.00,0,WeatherHawk,2013-01-21 01:20:00,
2013-01-20 17:25:00,34.8,16.7,30.38,NE,34,0.0,0.0,47,0.00,,,0.00,0,WeatherHawk,2013-01-21 01:25:00,
2013-01-20 17:30:00,34.9,17.7,30.38,ESE,112,0.0,0.0,49,0.00,,,0.00,0,WeatherHawk,2013-01-21 01:30:00,
2013-01-20 17:35:00,35.4,17.7,30.38,NE,49,0.0,0.0,48,0.00,,,0.00,0,WeatherHawk,2013-01-21 01:35:00,
2013-01-20 17:41:00,35.0,17.8,30.38,NE,49,0.0,0.0,49,0.00,,,0.00,0,WeatherHawk,2013-01-21 01:41:00,
2013-01-20 17:47:00,34.9,18.2,30.38,North,4,0.0,0.0,50,0.00,,,0.00,0,WeatherHawk,2013-01-21 01:47:00,
2013-01-20 17:52:00,34.8,18.1,30.38,North,9,0.0,0.0,50,0.00,,,0.00,0,WeatherHawk,2013-01-21 01:52:00,
2013-01-20 17:57:00,34.5,18.2,30.38,North,9,0.0,0.0,51,0.00,,,0.00,1,WeatherHawk,2013-01-21 01:57:00,
2013-01-20 18:03:00,34.7,18.9,30.39,North,9,0.0,0.0,52,0.00,,,0.00,0,WeatherHawk,2013-01-21 02:03:00,
2013-01-20 18:08:00,34.7,18.9,30.39,NE,37,2.0,0.0,52,0.00,,,0.00,0,WeatherHawk,2013-01-21 02:08:00,
2013-01-20 18:13:00,34.3,18.5,30.39,NNE,24,0.0,0.0,52,0.00,,,0.00,0,WeatherHawk,2013-01-21 02:13:00,
2013-01-20 18:19:00,33.1,18.7,30.39,NNE,24,0.0,0.0,55,0.00,,,0.00,0,WeatherHawk,2013-01-21 02:19:00,
2013-01-20 18:24:00,31.5,18.5,30.39,NNE,24,0.0,0.0,58,0.00,,,0.00,0,WeatherHawk,2013-01-21 02:24:00,
2013-01-20 18:29:00,32.3,20.0,30.39,NNE,24,0.0,0.0,60,0.00,,,0.00,1,WeatherHawk,2013-01-21 02:29:00,
2013-01-20 18:34:00,32.1,19.8,30.39,NNE,24,0.0,0.0,60,0.00,,,0.00,0,WeatherHawk,2013-01-21 02:34:00,
2013-01-20 18:39:00,32.9,22.5,30.39,NNE,24,0.0,0.0,65,0.00,,,0.00,0,WeatherHawk,2013-01-21 02:39:00,
2013-01-20 18:44:00,32.4,22.7,30.39,NNE,24,0.0,0.0,67,0.00,,,0.00,0,WeatherHawk,2013-01-21 02:44:00,
2013-01-20 18:49:00,30.6,21.0,30.40,NNE,24,0.0,0.0,67,0.00,,,0.00,1,WeatherHawk,2013-01-21 02:49:00,
2013-01-20 18:54:00,30.8,22.2,30.40,North,0,0.0,0.0,70,0.00,,,0.00,0,WeatherHawk,2013-01-21 02:54:00,
2013-01-20 18:59:00,28.7,20.2,30.40,WSW,258,0.0,0.0,70,0.00,,,0.00,0,WeatherHawk,2013-01-21 02:59:00,
2013-01-20 19:04:00,30.8,23.8,30.40,WSW,258,0.0,0.0,75,0.00,,,0.00,0,WeatherHawk,2013-01-21 03:04:00,
2013-01-20 19:09:00,29.8,22.6,30.40,WSW,258,0.0,0.0,74,0.00,,,0.00,0,WeatherHawk,2013-01-21 03:09:00,
2013-01-20 19:14:00,28.2,21.3,30.40,WSW,258,0.0,0.0,75,0.00,,,0.00,0,WeatherHawk,2013-01-21 03:14:00,
2013-01-20 19:19:00,29.1,23.4,30.41,SW,228,0.0,0.0,79,0.00,,,0.00,0,WeatherHawk,2013-01-21 03:19:00,
2013-01-20 19:24:00,28.8,23.2,30.40,South,188,0.0,0.0,79,0.00,,,0.00,0,WeatherHawk,2013-01-21 03:24:00,
2013-01-20 19:29:00,28.2,23.4,30.41,South,188,0.0,0.0,82,0.00,,,0.00,0,WeatherHawk,2013-01-21 03:29:00,
2013-01-20 19:35:00,28.6,23.8,30.40,SSE,164,0.0,-999.0,82,0.00,,,0.00,0,WeatherHawk,2013-01-21 03:35:00,
2013-01-20 19:40:00,28.4,24.2,30.41,SSE,164,0.0,0.0,84,0.00,,,0.00,1,WeatherHawk,2013-01-21 03:40:00,
2013-01-20 19:45:00,27.7,23.5,30.41,SSE,164,0.0,-999.0,84,0.00,,,0.00,0,WeatherHawk,2013-01-21 03:45:00,
2013-01-20 19:50:00,27.4,23.5,30.41,SSE,164,0.0,-999.0,85,0.00,,,0.00,0,WeatherHawk,2013-01-21 03:50:00,
2013-01-20 19:55:00,28.3,25.2,30.41,SSE,164,0.0,0.0,88,0.00,,,0.00,0,WeatherHawk,2013-01-21 03:55:00,
2013-01-20 20:00:00,27.8,25.3,30.41,SSE,164,0.0,0.0,90,0.00,,,0.00,0,WeatherHawk,2013-01-21 04:00:00,
2013-01-20 20:05:00,28.8,26.3,30.41,SSE,164,0.0,0.0,90,0.00,,,0.00,0,WeatherHawk,2013-01-21 04:05:00,
2013-01-20 20:10:00,28.3,25.7,30.41,SSE,164,0.0,0.0,90,0.00,,,0.00,1,WeatherHawk,2013-01-21 04:10:00,
2013-01-20 20:15:00,28.4,25.8,30.40,SSE,164,0.0,0.0,90,0.00,,,0.00,0,WeatherHawk,2013-01-21 04:15:00,
2013-01-20 20:20:00,28.2,25.9,30.41,SSE,164,0.0,0.0,91,0.00,,,0.00,1,WeatherHawk,2013-01-21 04:20:00,
2013-01-20 20:25:00,27.6,24.0,30.41,ESE,107,5.0,-999.0,86,0.00,,,0.00,0,WeatherHawk,2013-01-21 04:25:00,
2013-01-20 20:30:00,28.0,23.8,30.41,East,90,6.0,0.0,84,0.00,,,0.00,0,WeatherHawk,2013-01-21 04:30:00,
2013-01-20 20:35:00,28.1,23.4,30.41,ESE,102,6.0,0.0,82,0.00,,,0.00,0,WeatherHawk,2013-01-21 04:35:00,
2013-01-20 20:40:00,28.0,23.2,30.41,East,99,6.0,0.0,82,0.00,,,0.00,0,WeatherHawk,2013-01-21 04:40:00,
2013-01-20 20:45:00,28.1,23.3,30.41,ESE,103,6.0,0.0,82,0.00,,,0.00,0,WeatherHawk,2013-01-21 04:45:00,
2013-01-20 20:50:00,28.4,23.3,30.41,East,90,5.0,-999.0,81,0.00,,,0.00,0,WeatherHawk,2013-01-21 04:50:00,
2013-01-20 20:55:00,28.8,23.4,30.41,ESE,112,4.0,-999.0,80,0.00,,,0.00,0,WeatherHawk,2013-01-21 04:55:00,
2013-01-20 21:00:00,28.3,22.9,30.41,ENE,60,5.0,0.0,80,0.00,,,0.00,0,WeatherHawk,2013-01-21 05:00:00,
2013-01-20 21:03:00,28.4,23.1,30.41,ENE,78,6.0,0.0,80,0.00,,,0.00,0,WeatherHawk,2013-01-21 05:03:00,
2013-01-20 21:04:00,28.2,23.1,30.41,ENE,59,5.0,0.0,81,0.00,,,0.00,0,WeatherHawk,2013-01-21 05:04:00,
2013-01-20 21:05:00,28.2,23.1,30.41,ENE,59,5.0,-999.0,81,0.00,,,0.00,0,WeatherHawk,2013-01-21 05:05:00,
2013-01-20 21:10:00,27.6,22.9,30.40,ESE,106,6.0,-999.0,82,0.00,,,0.00,0,WeatherHawk,2013-01-21 05:10:00,
2013-01-20 21:15:00,27.8,23.1,30.40,East,88,5.0,0.0,82,0.00,,,0.00,1,WeatherHawk,2013-01-21 05:15:00,
2013-01-20 21:20:00,27.0,22.3,30.41,ENE,74,3.0,0.0,82,0.00,,,0.00,0,WeatherHawk,2013-01-21 05:20:00,
2013-01-20 21:25:00,26.5,22.3,30.41,NNE,27,0.0,0.0,84,0.00,,,0.00,0,WeatherHawk,2013-01-21 05:25:00,
2013-01-20 21:31:00,25.7,21.9,30.41,ESE,103,3.0,0.0,85,0.00,,,0.00,0,WeatherHawk,2013-01-21 05:31:00,
2013-01-20 21:37:00,26.2,22.9,30.41,ESE,107,4.0,0.0,87,0.00,,,0.00,0,WeatherHawk,2013-01-21 05:37:00,
2013-01-20 21:42:00,25.1,21.8,30.42,ESE,109,3.0,0.0,87,0.00,,,0.00,0,WeatherHawk,2013-01-21 05:42:00,
2013-01-20 21:47:00,25.9,22.8,30.41,East,99,4.0,0.0,88,0.00,,,0.00,0,WeatherHawk,2013-01-21 05:47:00,
2013-01-20 21:53:00,25.6,22.6,30.42,ENE,73,3.0,0.0,88,0.00,,,0.00,0,WeatherHawk,2013-01-21 05:53:00,
2013-01-20 21:58:00,25.2,22.2,30.42,ESE,103,3.0,0.0,88,0.00,,,0.00,0,WeatherHawk,2013-01-21 05:58:00,
2013-01-20 22:03:00,25.5,22.2,30.42,ESE,102,3.0,0.0,87,0.00,,,0.00,1,WeatherHawk,2013-01-21 06:03:00,
2013-01-20 22:08:00,25.3,22.2,30.42,East,96,2.0,0.0,88,0.00,,,0.00,0,WeatherHawk,2013-01-21 06:08:00,
2013-01-20 22:13:00,24.3,21.2,30.42,ESE,109,2.0,0.0,88,0.00,,,0.00,1,WeatherHawk,2013-01-21 06:13:00,
2013-01-20 22:18:00,23.5,20.8,30.42,East,95,0.0,0.0,89,0.00,,,0.00,0,WeatherHawk,2013-01-21 06:18:00,
2013-01-20 22:23:00,23.2,21.0,30.42,WSW,252,0.0,0.0,91,0.00,,,0.00,0,WeatherHawk,2013-01-21 06:23:00,
2013-01-20 22:29:00,24.2,22.7,30.42,ESE,118,2.0,0.0,94,0.00,,,0.00,0,WeatherHawk,2013-01-21 06:29:00,
2013-01-20 22:34:00,24.7,23.7,30.42,ESE,118,0.0,0.0,96,0.00,,,0.00,0,WeatherHawk,2013-01-21 06:34:00,
2013-01-20 22:39:00,25.3,24.3,30.42,East,101,2.0,0.0,96,0.00,,,0.00,0,WeatherHawk,2013-01-21 06:39:00,
2013-01-20 22:45:00,25.6,24.4,30.42,ENE,70,0.0,-999.0,95,0.00,,,0.00,0,WeatherHawk,2013-01-21 06:45:00,
2013-01-20 22:50:00,25.4,23.9,30.42,NE,46,0.0,0.0,94,0.00,,,0.00,0,WeatherHawk,2013-01-21 06:50:00,
2013-01-20 22:55:00,24.9,23.5,30.42,NE,45,0.0,0.0,94,0.00,,,0.00,0,WeatherHawk,2013-01-21 06:55:00,
2013-01-20 23:00:00,25.3,23.8,30.42,NE,45,0.0,0.0,94,0.00,,,0.00,0,WeatherHawk,2013-01-21 07:00:00,
2013-01-20 23:05:00,25.4,24.2,30.42,NNE,28,0.0,0.0,95,0.00,,,0.00,0,WeatherHawk,2013-01-21 07:05:00,
2013-01-20 23:10:00,25.1,24.2,30.42,NNE,28,0.0,0.0,96,0.00,,,0.00,0,WeatherHawk,2013-01-21 07:10:00,
2013-01-20 23:15:00,24.5,23.3,30.42,NNE,28,0.0,0.0,95,0.00,,,0.00,0,WeatherHawk,2013-01-21 07:15:00,
2013-01-20 23:20:00,23.9,23.2,30.42,NNE,28,0.0,0.0,97,0.00,,,0.00,0,WeatherHawk,2013-01-21 07:20:00,
2013-01-20 23:25:00,23.8,23.4,30.42,NNE,28,0.0,0.0,98,0.00,,,0.00,0,WeatherHawk,2013-01-21 07:25:00,
2013-01-20 23:30:00,23.3,23.0,30.42,NNE,28,0.0,0.0,99,0.00,,,0.00,0,WeatherHawk,2013-01-21 07:30:00,
2013-01-20 23:35:00,23.8,23.8,30.42,South,181,0.0,0.0,100,0.00,,,0.00,0,WeatherHawk,2013-01-21 07:35:00,
2013-01-20 23:40:00,24.2,24.2,30.42,South,181,0.0,-999.0,100,0.00,,,0.00,1,WeatherHawk,2013-01-21 07:40:00,
2013-01-20 23:45:00,23.3,23.3,30.41,South,181,0.0,0.0,100,0.00,,,0.00,0,WeatherHawk,2013-01-21 07:45:00,
2013-01-20 23:50:00,23.5,23.5,30.42,South,181,0.0,0.0,100,0.00,,,0.00,0,WeatherHawk,2013-01-21 07:50:00,
2013-01-20 23:55:00,23.2,23.2,30.41,South,181,0.0,-999.0,100,0.00,,,0.00,0,WeatherHawk,2013-01-21 07:55:00,